Regional Weather Roundup
Issued by NWS

Home | Current Version | Previous Version | Graphics & Text | Print | Product List | Glossary On
Versions: 1 2 3 4 5 6 7 8 9 10 11 12 13 14 15 16 17 18 19 20 21 22 23 24 25 26 27 28 29 30 31 32 33 34 35 36 37 38 39 40 41 42 43 44 45 46 47 48 49 50
000
ASUS43 KOAX 301502
RWRNE

WEATHER ROUNDUP FOR NEBRASKA
NATIONAL WEATHER SERVICE OMAHA NE
1000 AM CDT TUE JUN 30 2015

NOTES: SATELLITE DATA IS BEING USED TO AUGMENT CLOUD COVER ABOVE
       12000 FEET.
       "FAIR" INDICATES FEW OR NO CLOUDS BELOW 12,000 FEET WITH NO
       SIGNIFICANT WEATHER AND/OR OBSTRUCTIONS TO VISIBILITY.

  * THESE STATIONS DO NOT REPORT WEATHER SUCH AS RAIN...SNOW OR FOG.

NEZ001>004-019>022-054>056-301600-
NEBRASKA PANHANDLE

CITY           SKY/WX    TMP DP  RH WIND       PRES   REMARKS
SCOTTSBLUFF    MOSUNNY   74  57  55 W8        30.05F
ALLIANCE       PTSUNNY   74  61  63 SW5       30.04S
CHADRON        PTSUNNY   75  60  59 CALM      29.99S
KIMBALL          N/A    N/A N/A N/A MISG        N/A
SIDNEY         SUNNY     79  58  48 W7        30.09S
$$

NEZ057>060-069>072-079>082-301600-
SOUTHWEST NEBRASKA

CITY           SKY/WX    TMP DP  RH WIND       PRES   REMARKS
NORTH PLATTE   SUNNY     77  63  61 S3        30.00F
IMPERIAL       SUNNY     80  60  50 SW3       30.04S
LEXINGTON      MOSUNNY   81  63  54 S7        29.99S
MCCOOK         SUNNY     78  61  55 SW5       30.01S
$$

NEZ005>010-023>029-035>040-094-301600-
NORTH CENTRAL NEBRASKA

CITY           SKY/WX    TMP DP  RH WIND       PRES   REMARKS
VALENTINE        N/A     78  60  53 SE12      29.96F
AINSWORTH      MOSUNNY   76  61  61 SE10      29.97F
BROKEN BOW     MOSUNNY   82  64  54 SW6       29.97F
O`NEILL        CLOUDY    75  63  67 E8        29.97S
ORD            SUNNY     79  61  53 VRB3      29.95F
$$

NEZ041-046>049-061>064-073>077-083>087-301600-
SOUTH CENTRAL NEBRASKA

CITY           SKY/WX    TMP DP  RH WIND       PRES   REMARKS
GRAND ISLAND   SUNNY     85  62  46 SW9       29.96F
AURORA         MOSUNNY   82  64  54 W8        29.96F
HASTINGS       SUNNY     83  63  50 SW8       29.97F
KEARNEY *      MOSUNNY   81  63  54 SW10      29.97F
$$

NEZ011>018-030>034-042>045-301600-
NORTHEAST NEBRASKA

CITY           SKY/WX    TMP DP  RH WIND       PRES   REMARKS
NORFOLK        CLOUDY    74  66  76 SE6       29.94F HAZE
COLUMBUS *     CLOUDY    73  63  68 S3        29.99R
FREMONT        CLOUDY    74  63  69 CALM      29.96F
TEKAMAH        CLOUDY    74  65  73 W3        29.93F HAZE
$$

NEZ050>053-065>068-078-088>093-301600-
SOUTHEAST NEBRASKA

CITY           SKY/WX    TMP DP  RH WIND       PRES   REMARKS
LINCOLN        PTSUNNY   79  65  62 CALM      29.97F HAZE
OMAHA EPPLEY   CLOUDY    75  65  70 CALM      29.94F HAZE
FALLS CITY     SUNNY     78  67  68 NW6       29.95S
PLATTSMOUTH    PTSUNNY   73  63  71 CALM      29.96S
$$

NEZ044-045-051>053-067-301600-
OMAHA AREA

CITY           SKY/WX    TMP DP  RH WIND       PRES   REMARKS
OMAHA EPPLEY   CLOUDY    75  65  70 CALM      29.94F HAZE
FREMONT        CLOUDY    74  63  69 CALM      29.96F
MILLARD        CLOUDY    74  64  73 CALM      29.94F
OFFUTT AFB     CLOUDY    74  64  69 SW3       29.94F
PLATTSMOUTH    PTSUNNY   73  63  71 CALM      29.96S
$$


USA.gov is the U.S. government's official web portal to all federal, state and local government web resources and services.